Location: Boo
(59.3083°N, 18.2784°E)
Time: 21:51:13
(UTC+01:00)

ISS - Visible Passes

Search period start: 28 November 2022 00:00
Search period end: 08 December 2022 00:00
Orbit: 411 x 420 km, 51.6° (Epoch: 28 November)

Date Brightness Start Highest point End Pass type
(mag) Time Alt. Az. Time Alt. Az. Time Alt. Az.
28 Nov -1.8 17:05:06 10° SW 17:07:45 22° S 17:09:36 14° SE visible
28 Nov -0.9 18:41:27 10° WSW 18:42:29 15° SW 18:42:29 15° SW visible
29 Nov -1.6 16:16:40 10° SW 16:19:15 21° S 16:21:49 10° ESE visible
29 Nov -1.7 17:52:46 10° WSW 17:55:17 20° SSW 17:55:47 19° S visible
30 Nov -1.6 17:04:08 10° WSW 17:06:45 21° S 17:09:05 11° SE visible
30 Nov -0.8 18:41:07 10° SW 18:41:58 12° SW 18:41:58 12° SW visible
01 Dec -1.6 16:15:32 10° SW 16:18:11 22° S 16:20:50 10° SE visible
01 Dec -1.2 17:52:06 10° WSW 17:54:09 15° SSW 17:55:20 13° S visible
02 Dec -1.2 17:03:15 10° WSW 17:05:36 18° SSW 17:07:57 10° SSE visible
03 Dec -1.3 16:14:28 10° WSW 16:17:00 20° S 16:19:32 10° SE visible
03 Dec -0.6 17:52:17 10° SW 17:52:50 10° SSW 17:53:22 10° SSW visible
04 Dec -0.8 17:02:37 10° SW 17:04:16 13° SSW 17:05:55 10° S visible
05 Dec -0.9 16:13:32 10° WSW 16:15:40 16° SSW 16:17:47 10° SSE visible
07 Dec -0.3 16:13:11 10° SW 16:14:07 11° SSW 16:15:03 10° SSW visible
